TimeCST,TemperatureF,Dew PointF,Humidity,Sea Level PressureIn,VisibilityMPH,Wind Direction,Wind SpeedMPH,Gust SpeedMPH,PrecipitationIn,Events,Conditions,WindDirDegrees,DateUTC
12:15 AM,15.8,14.0,93,29.82,7.0,SW,6.9,-,N/A,,Overcast,230,2013-12-17 06:15:00
12:35 AM,17.6,14.0,86,29.81,2.0,SW,8.1,-,N/A,Snow,Light Snow,230,2013-12-17 06:35:00
12:55 AM,17.6,15.8,93,29.80,1.5,SW,5.8,-,N/A,Snow,Light Snow,230,2013-12-17 06:55:00
1:15 AM,17.6,17.6,100,29.79,1.5,WSW,6.9,-,N/A,Snow,Light Snow,240,2013-12-17 07:15:00
1:35 AM,19.4,17.6,93,29.78,7.0,SW,4.6,-,N/A,Snow,Light Snow,220,2013-12-17 07:35:00
1:55 AM,19.4,17.6,93,29.78,1.0,SW,5.8,-,N/A,Snow,Light Snow,230,2013-12-17 07:55:00
2:15 AM,21.2,19.4,93,29.78,2.0,SW,5.8,-,N/A,Snow,Light Snow,230,2013-12-17 08:15:00
2:35 AM,21.2,19.4,93,29.78,4.0,West,10.4,-,N/A,Snow,Light Snow,260,2013-12-17 08:35:00
2:55 AM,21.2,21.2,100,29.77,5.0,West,11.5,-,N/A,Snow,Light Snow,260,2013-12-17 08:55:00
3:15 AM,21.2,21.2,100,29.77,5.0,West,10.4,-,N/A,Snow,Light Snow,270,2013-12-17 09:15:00
3:35 AM,23.0,21.2,93,29.77,5.0,West,8.1,-,N/A,Snow,Light Snow,280,2013-12-17 09:35:00
3:55 AM,24.8,23.0,93,29.78,4.0,West,12.7,-,N/A,Snow,Light Snow,280,2013-12-17 09:55:00
4:15 AM,26.6,23.0,86,29.78,7.0,West,10.4,-,N/A,Snow,Light Snow,280,2013-12-17 10:15:00
4:35 AM,28.4,24.8,86,29.78,7.0,WNW,10.4,17.3,N/A,Snow,Light Snow,300,2013-12-17 10:35:00
4:55 AM,28.4,24.8,86,29.78,10.0,WNW,9.2,-,N/A,,Overcast,300,2013-12-17 10:55:00
5:15 AM,28.4,24.8,86,29.78,10.0,WNW,8.1,-,N/A,,Overcast,300,2013-12-17 11:15:00
5:35 AM,28.4,24.8,86,29.79,10.0,WNW,9.2,-,N/A,,Overcast,290,2013-12-17 11:35:00
5:55 AM,28.4,23.0,80,29.79,10.0,WNW,12.7,19.6,N/A,,Mostly Cloudy,290,2013-12-17 11:55:00
6:15 AM,26.6,23.0,86,29.80,10.0,WNW,15.0,19.6,N/A,,Mostly Cloudy,290,2013-12-17 12:15:00
6:35 AM,26.6,21.2,80,29.80,10.0,West,12.7,-,N/A,,Mostly Cloudy,280,2013-12-17 12:35:00
6:55 AM,26.6,23.0,86,29.81,10.0,West,11.5,-,N/A,,Mostly Cloudy,280,2013-12-17 12:55:00
7:15 AM,26.6,23.0,86,29.81,10.0,West,12.7,-,N/A,,Scattered Clouds,280,2013-12-17 13:15:00
7:35 AM,26.6,23.0,86,29.81,10.0,West,16.1,19.6,N/A,,Mostly Cloudy,270,2013-12-17 13:35:00
7:55 AM,26.6,23.0,86,29.82,10.0,WNW,15.0,-,N/A,,Overcast,290,2013-12-17 13:55:00
8:15 AM,26.6,21.2,80,29.83,10.0,WNW,13.8,24.2,N/A,,Overcast,290,2013-12-17 14:15:00
8:35 AM,26.6,19.4,74,29.83,10.0,WNW,12.7,-,N/A,,Mostly Cloudy,290,2013-12-17 14:35:00
8:55 AM,24.8,19.4,80,29.83,10.0,West,11.5,-,N/A,,Scattered Clouds,280,2013-12-17 14:55:00
9:15 AM,26.6,21.2,80,29.84,10.0,West,13.8,17.3,N/A,,Mostly Cloudy,280,2013-12-17 15:15:00
9:35 AM,26.6,21.2,80,29.85,10.0,WNW,16.1,26.5,N/A,,Overcast,290,2013-12-17 15:35:00
9:55 AM,26.6,19.4,74,29.86,10.0,WNW,15.0,-,N/A,,Overcast,290,2013-12-17 15:55:00
10:15 AM,26.6,19.4,74,29.86,7.0,WNW,13.8,24.2,N/A,Snow,Light Snow,290,2013-12-17 16:15:00
10:35 AM,26.6,19.4,74,29.86,10.0,WNW,15.0,21.9,N/A,Snow,Light Snow,290,2013-12-17 16:35:00
10:55 AM,26.6,19.4,74,29.86,10.0,West,16.1,20.7,N/A,,Overcast,280,2013-12-17 16:55:00
11:15 AM,26.6,19.4,74,29.86,10.0,West,17.3,21.9,N/A,,Overcast,280,2013-12-17 17:15:00
11:35 AM,26.6,19.4,74,29.86,10.0,West,19.6,-,N/A,,Overcast,280,2013-12-17 17:35:00
11:55 AM,26.6,19.4,74,29.86,10.0,West,15.0,-,N/A,,Overcast,280,2013-12-17 17:55:00
12:15 PM,26.6,19.4,74,29.86,10.0,WNW,11.5,24.2,N/A,,Overcast,300,2013-12-17 18:15:00
12:35 PM,26.6,19.4,74,29.85,10.0,West,12.7,-,N/A,,Overcast,280,2013-12-17 18:35:00
12:55 PM,26.6,19.4,74,29.85,10.0,West,20.7,25.3,N/A,Snow,Light Snow,280,2013-12-17 18:55:00
1:15 PM,26.6,19.4,74,29.86,5.0,NW,19.6,26.5,N/A,Snow,Light Snow,310,2013-12-17 19:15:00
1:35 PM,23.0,17.6,80,29.86,5.0,NW,17.3,-,N/A,Snow,Light Snow,310,2013-12-17 19:35:00
1:55 PM,23.0,17.6,80,29.87,7.0,NW,11.5,-,N/A,Snow,Light Snow,310,2013-12-17 19:55:00
2:15 PM,23.0,14.0,68,29.87,7.0,NW,16.1,23.0,N/A,Snow,Light Snow,310,2013-12-17 20:15:00
2:35 PM,23.0,14.0,68,29.88,10.0,WNW,13.8,26.5,N/A,,Overcast,300,2013-12-17 20:35:00
2:55 PM,21.2,12.2,68,29.89,10.0,WNW,19.6,27.6,N/A,,Overcast,300,2013-12-17 20:55:00
3:15 PM,21.2,10.4,63,29.91,7.0,WNW,18.4,25.3,N/A,,Overcast,300,2013-12-17 21:15:00
3:35 PM,19.4,8.6,63,29.92,10.0,WNW,15.0,23.0,N/A,,Mostly Cloudy,300,2013-12-17 21:35:00
3:55 PM,19.4,8.6,63,29.93,10.0,WNW,15.0,21.9,N/A,,Scattered Clouds,300,2013-12-17 21:55:00
4:15 PM,19.4,10.4,68,29.94,10.0,WNW,16.1,21.9,N/A,,Overcast,300,2013-12-17 22:15:00
4:35 PM,17.6,8.6,68,29.95,10.0,NW,10.4,17.3,N/A,,Overcast,310,2013-12-17 22:35:00
4:55 PM,17.6,8.6,68,29.96,10.0,NW,11.5,-,N/A,,Mostly Cloudy,310,2013-12-17 22:55:00
5:15 PM,15.8,6.8,68,29.96,10.0,NW,11.5,-,N/A,,Scattered Clouds,310,2013-12-17 23:15:00
5:35 PM,14.0,5.0,67,29.97,10.0,WNW,9.2,-,N/A,,Clear,300,2013-12-17 23:35:00
5:55 PM,14.0,5.0,67,29.97,10.0,WNW,10.4,-,N/A,,Clear,300,2013-12-17 23:55:00
6:15 PM,14.0,5.0,67,29.99,10.0,WNW,10.4,17.3,N/A,,Clear,300,2013-12-18 00:15:00
6:35 PM,12.2,5.0,73,29.99,10.0,WNW,9.2,21.9,N/A,,Clear,300,2013-12-18 00:35:00
6:55 PM,12.2,3.2,67,30.00,10.0,WNW,11.5,17.3,N/A,,Clear,300,2013-12-18 00:55:00
7:15 PM,12.2,3.2,67,30.01,10.0,WNW,11.5,-,N/A,,Clear,300,2013-12-18 01:15:00
7:35 PM,12.2,3.2,67,30.01,10.0,WNW,11.5,-,N/A,,Clear,300,2013-12-18 01:35:00
7:55 PM,10.4,3.2,73,30.01,10.0,WNW,10.4,16.1,N/A,,Clear,300,2013-12-18 01:55:00
8:15 PM,8.6,1.4,73,30.01,10.0,WNW,8.1,-,N/A,,Clear,290,2013-12-18 02:15:00
8:35 PM,8.6,1.4,73,30.01,10.0,West,6.9,-,N/A,,Clear,280,2013-12-18 02:35:00
8:55 PM,5.0,-0.4,78,30.02,10.0,West,10.4,-,N/A,,Clear,280,2013-12-18 02:55:00
9:15 PM,5.0,-0.4,78,30.02,10.0,West,9.2,-,N/A,,Clear,280,2013-12-18 03:15:00
9:35 PM,5.0,-0.4,78,30.02,10.0,West,9.2,-,N/A,,Clear,280,2013-12-18 03:35:00
9:55 PM,3.2,-2.2,78,30.03,10.0,West,8.1,-,N/A,,Clear,280,2013-12-18 03:55:00
10:15 PM,5.0,-0.4,78,30.03,10.0,West,5.8,-,N/A,,Clear,280,2013-12-18 04:15:00
10:35 PM,5.0,-0.4,78,30.03,10.0,West,5.8,-,N/A,,Clear,280,2013-12-18 04:35:00
10:55 PM,5.0,-0.4,78,30.03,10.0,West,3.5,-,N/A,,Clear,280,2013-12-18 04:55:00
11:15 PM,3.2,-0.4,85,30.03,10.0,West,3.5,-,N/A,,Clear,260,2013-12-18 05:15:00
11:35 PM,3.2,-0.4,85,30.03,10.0,WNW,3.5,-,N/A,,Clear,290,2013-12-18 05:35:00
11:55 PM,3.2,-0.4,85,30.02,10.0,West,4.6,-,N/A,,Clear,280,2013-12-18 05:55:00